Flight Track Log - Related Links

Times and Time Zones

All times are in EDT time to prevent confusion due to time zone crossing. See the N137TK flight status page for this flight to view local times or setup timezone preferences in your user account.

Time Position Orientation Groundspeed Altitude Reporting Facility
EDT Latitude Longitude Course Direction KTS MPH feet Rate Location/Type
Fri 07:33:09 AM 26.2286 -81.8633 354° North 177 204 3,600  Level Miami Center
Fri 07:34:09 AM 26.2672 -81.8928 326° Northwest 177 204 5,400 1,800 Climbing Miami Center
Fri 07:35:09 AM 26.3081 -81.9225 327° Northwest 182 209 7,200 1,900 Climbing Miami Center
Fri 07:36:09 AM 26.3536 -81.9267 355° North 175 201 9,200 1,900 Climbing Miami Center
Fri 07:37:00 AM 26.5491 -81.8145 354° North  Level FlightAware Approximate
Fri 07:37:09 AM 26.4061 -81.9219 North 175 201 11,000  Level Miami Center
Fri 07:38:00 AM 26.6157 -81.8221 354° North  Level FlightAware Approximate
Fri 07:38:09 AM 26.4628 -81.9150 North 188 216 12,700  Level Miami Center
Fri 07:39:09 AM 26.5086 -81.9147 360° North 188 216 14,100 1,500 Climbing Miami Center
Fri 07:40:09 AM 26.5631 -81.9103 North 188 216 15,700 1,500 Climbing Miami Center
Fri 07:41:09 AM 26.6175 -81.9033 North 193 222 17,100 1,289 Climbing Miami Center
Fri 07:42:10 AM 26.6719 -81.9033 360° North 193 222 18,300 1,250 Climbing Miami Center
Fri 07:43:09 AM 26.7242 -81.9031 360° North 193 222 19,600 1,261 Climbing Miami Center
Fri 07:44:09 AM 26.7742 -81.9006 North 193 222 20,800 1,150 Climbing Miami Center
Fri 07:45:09 AM 26.8222 -81.9003 360° North 182 209 21,900 1,050 Climbing Miami Center
Fri 07:46:09 AM 26.8725 -81.8978 North 177 204 22,900 1,150 Climbing Miami Center
Fri 07:47:09 AM 26.9225 -81.8978 360° North 177 204 24,200 1,050 Climbing Miami Center
Fri 07:48:09 AM 26.9706 -81.8975 360° North 177 204 25,000 397 Climbing Miami Center
Fri 07:49:10 AM 27.0269 -81.8953 North 187 215 25,000  Level Miami Center
Fri 07:50:09 AM 27.0922 -81.8772 14° North 210 242 25,000  Level Miami Center
Fri 07:51:10 AM 27.1664 -81.8500 18° North 247 284 25,000  Level Miami Center
Fri 07:52:09 AM 27.2339 -81.8247 18° North 252 290 25,000  Level Miami Center
Fri 07:53:09 AM 27.3058 -81.8000 17° North 252 290 25,000  Level Miami Center
Fri 07:54:09 AM 27.3672 -81.7744 20° North 258 297 25,000  Level Miami Center
Fri 07:55:10 AM 27.4389 -81.7494 17° North 263 303 25,000  Level Miami Center
Fri 07:56:10 AM 27.5172 -81.7200 18° North 263 303 25,000  Level Miami Center
Fri 07:57:10 AM 27.5869 -81.6972 16° North 268 308 25,000  Level Miami Center
Fri 07:58:09 AM 27.6586 -81.6697 19° North 268 308 25,000  Level Miami Center
Fri 07:59:09 AM 27.7222 -81.6444 19° North 262 302 25,000  Level Miami Center
Fri 08:00:09 AM 27.8025 -81.6150 18° North 269 310 25,000  Level Miami Center
Fri 08:01:09 AM 27.8744 -81.5875 19° North 269 310 25,000  Level Miami Center
Fri 08:02:09 AM 27.9378 -81.5642 18° North 269 310 25,000  Level Miami Center
Fri 08:03:09 AM 28.0075 -81.5364 19° North 269 310 25,000  Level Miami Center
Fri 08:04:09 AM 28.0772 -81.5111 18° North 269 310 25,000  Level Miami Center
Fri 08:05:10 AM 28.1489 -81.4858 17° North 269 310 25,000  Level Miami Center
Fri 08:06:09 AM 28.2167 -81.4581 20° North 269 310 25,000  Level Miami Center
Fri 08:06:51 AM 28.2586 -81.4411 20° North 265 305 25,000  Level Jacksonville Center
Fri 08:07:51 AM 28.3439 -81.4139 16° North 270 311 25,000  Level Jacksonville Center
Fri 08:08:51 AM 28.4144 -81.3867 19° North 270 311 25,000  Level Jacksonville Center
Fri 08:09:51 AM 28.4894 -81.3786 North 265 305 25,000  Level Jacksonville Center
Fri 08:10:51 AM 28.5606 -81.3775 North 255 293 25,000  Level Jacksonville Center
Fri 08:11:51 AM 28.6314 -81.3836 356° North 255 293 25,000  Level Jacksonville Center
Fri 08:12:51 AM 28.7044 -81.3847 359° North 255 293 25,000  Level Jacksonville Center
Fri 08:13:51 AM 28.7775 -81.3861 359° North 255 293 25,000  Level Jacksonville Center
Fri 08:14:51 AM 28.8486 -81.3922 356° North 255 293 25,000  Level Jacksonville Center
Fri 08:15:51 AM 28.9158 -81.4219 339° North 255 293 25,000  Level Jacksonville Center
Fri 08:16:51 AM 28.9828 -81.4494 340° North 255 293 25,000  Level Jacksonville Center
Fri 08:17:51 AM 29.0561 -81.4578 354° North 260 299 25,000  Level Jacksonville Center
Fri 08:18:51 AM 29.1292 -81.4617 357° North 260 299 25,000  Level Jacksonville Center
Fri 08:19:51 AM 29.2000 -81.4653 357° North 260 299 25,000  Level Jacksonville Center
Fri 08:20:51 AM 29.2650 -81.4714 355° North 254 292 25,000  Level Jacksonville Center
Fri 08:21:51 AM 29.3378 -81.4633 North 254 292 25,000  Level Jacksonville Center
Fri 08:22:51 AM 29.4108 -81.4575 North 254 292 25,000  Level Jacksonville Center
Fri 08:23:51 AM 29.4839 -81.4517 North 254 292 25,000  Level Jacksonville Center
Fri 08:24:51 AM 29.5569 -81.4458 North 254 292 25,000  Level Jacksonville Center
Fri 08:25:51 AM 29.6297 -81.4375 North 254 292 25,000  Level Jacksonville Center
Fri 08:26:51 AM 29.7008 -81.4292 North 254 292 25,000  Level Jacksonville Center
Fri 08:27:51 AM 29.7758 -81.4233 North 254 292 25,000 -350 Level Jacksonville Center
Fri 08:28:51 AM 29.8531 -81.4175 North 254 292 24,300 -500 Descending Jacksonville Center
Fri 08:29:51 AM 29.9322 -81.4089 North 271 312 24,000 -150 Descending Jacksonville Center
Fri 08:30:51 AM 30.0072 -81.4006 North 276 318 24,000  Level Jacksonville Center
Fri 08:31:51 AM 30.0822 -81.3947 North 271 312 24,000  Level Jacksonville Center
Fri 08:32:51 AM 30.1575 -81.3864 North 271 312 24,000  Level Jacksonville Center
Fri 08:33:51 AM 30.2306 -81.3828 North 271 312 24,000  Level Jacksonville Center
Fri 08:34:51 AM 30.3056 -81.3719 North 271 312 24,000  Level Jacksonville Center
Fri 08:35:51 AM 30.3869 -81.3658 North 271 312 24,000 -100 Level Jacksonville Center
Fri 08:36:51 AM 30.4619 -81.3575 North 271 312 23,800 -500 Descending Jacksonville Center
Fri 08:37:51 AM 30.5411 -81.3514 North 276 318 23,000 -400 Descending Jacksonville Center
Fri 08:38:51 AM 30.6203 -81.3453 North 276 318 23,000  Level Jacksonville Center
Fri 08:39:51 AM 30.6956 -81.3367 North 276 318 23,000  Level Jacksonville Center
Fri 08:40:51 AM 30.7728 -81.3306 North 271 312 23,000 -350 Level Jacksonville Center
Fri 08:41:51 AM 30.8497 -81.3222 North 271 312 22,300 -850 Descending Jacksonville Center
Fri 08:42:51 AM 30.9308 -81.2894 19° North 283 326 21,300 -1,000 Descending Jacksonville Center
Fri 08:43:51 AM 31.0119 -81.2614 17° North 294 338 20,300 -1,050 Descending Jacksonville Center
Fri 08:44:51 AM 31.0928 -81.2283 19° North 301 346 19,200 -1,000 Descending Jacksonville Center
Fri 08:45:51 AM 31.1739 -81.1953 19° North 301 346 18,300 -850 Descending Jacksonville Center
Fri 08:46:51 AM 31.2569 -81.1669 16° North 301 346 17,500 -900 Descending Jacksonville Center
Fri 08:47:51 AM 31.3339 -81.1364 19° North 301 346 16,500 -950 Descending Jacksonville Center
Fri 08:48:51 AM 31.4064 -81.1033 21° North 297 342 15,600 -1,000 Descending Jacksonville Center
Fri 08:49:51 AM 31.4936 -81.0725 17° North 297 342 14,500 -1,050 Descending Jacksonville Center
Fri 08:50:51 AM 31.5725 -81.0394 20° North 297 342 13,500 -950 Descending Jacksonville Center
Fri 08:51:51 AM 31.6411 -81.0161 16° North 297 342 12,600 -1,000 Descending Jacksonville Center
Fri 08:52:51 AM 31.7219 -80.9825 19° North 286 329 11,500 -1,050 Descending Jacksonville Center
Fri 08:53:51 AM 31.7947 -80.9542 18° North 281 323 10,500 -1,000 Descending Jacksonville Center
Fri 08:54:51 AM 31.8675 -80.9283 17° North 276 318 9,500 -1,000 Descending Jacksonville Center
Fri 08:55:51 AM 31.9317 -80.9025 19° North 269 310 8,500 -950 Descending Jacksonville Center
Fri 08:56:51 AM 32.0044 -80.8739 18° North 269 310 7,600 -1,050 Descending Jacksonville Center
Fri 08:57:51 AM 32.0831 -80.8428 19° North 269 310 6,400 -1,200 Descending Jacksonville Center
Fri 08:59:00 AM 32.1358 -80.7738 48° Northeast  Level FlightAware Approximate
Fri 09:06:00 AM 32.4000 -80.6333 23° Northeast  Level FlightAware Approximate
Fri 09:07:00 AM 32.4122 -80.6344 23° Northeast  Level Estimated
Fri 09:08:00 AM 32.4122 -80.6344 23° Northeast  Level Estimated
Fri 09:09:00 AM 32.4122 -80.6344 23° Northeast  Level Estimated
Fri 09:10:00 AM 32.4122 -80.6344 23° Northeast  Level Estimated

Login

Don't have an account? Register now (free) for customized features, flight alerts, and more!